,,,PA_Meas_PMT16A,,PR_Meas_QMR101_102,,RH_Meas_QMH101,,SR_Meas_QMS101,,TA_Meas_QMH101,,GenWind,,GenWind,
date,time,status,PA,status,PR,status,RH,status,SR,status,TA,status,DirAvg,status,SpdAvg,
2012-01-06, 00:00:05,VALID,1000.93,VALID,0,VALID,94.676,VALID,0,VALID,24.2086,VALID,66,VALID,0.292188,
2012-01-06, 00:01:05,VALID,1000.91,VALID,0,VALID,94.6912,VALID,0,VALID,24.2086,VALID,66,VALID,0.142188,
2012-01-06, 00:02:05,VALID,1000.89,VALID,0,VALID,94.6683,VALID,0,VALID,24.1696,VALID,66,VALID,0,
2012-01-06, 00:03:05,VALID,1000.88,VALID,0,VALID,94.6912,VALID,0,VALID,24.1696,VALID,66,VALID,0,
2012-01-06, 00:04:05,VALID,1000.82,VALID,0,VALID,94.6988,VALID,0,VALID,24.1287,VALID,66,VALID,0,
2012-01-06, 00:05:05,VALID,1000.82,VALID,0,VALID,94.6988,VALID,0,VALID,24.1305,VALID,66,VALID,0,
2012-01-06, 00:06:05,VALID,1000.78,VALID,0,VALID,94.6836,VALID,0,VALID,24.1305,VALID,66,VALID,0,
2012-01-06, 00:07:05,VALID,1000.75,VALID,0,VALID,94.6912,VALID,0,VALID,24.1305,VALID,66,VALID,0,
2012-01-06, 00:08:05,VALID,1000.69,VALID,0,VALID,94.6836,VALID,0,VALID,24.1092,VALID,66,VALID,0,
2012-01-06, 00:09:05,VALID,1000.68,VALID,0,VALID,94.676,VALID,0,VALID,24.1305,VALID,66,VALID,0,
2012-01-06, 00:10:04,VALID,1000.63,VALID,0,VALID,94.6836,VALID,0,VALID,24.1305,VALID,66,VALID,0,
2012-01-06, 00:11:04,VALID,1000.63,VALID,0,VALID,94.676,VALID,0,VALID,24.0701,VALID,66,VALID,0,
2012-01-06, 00:12:04,VALID,1000.61,VALID,0,VALID,94.6836,VALID,0,VALID,24.0915,VALID,66,VALID,0,
2012-01-06, 00:13:04,VALID,1000.58,VALID,0,VALID,94.6912,VALID,0,VALID,24.0915,VALID,66,VALID,0,
2012-01-06, 00:14:04,VALID,1000.59,VALID,0,VALID,94.6912,VALID,0,VALID,24.0915,VALID,66,VALID,0,
2012-01-06, 00:15:04,VALID,1000.58,VALID,0,VALID,94.7065,VALID,0,VALID,24.111,VALID,66,VALID,0,
2012-01-06, 00:16:04,VALID,1000.6,VALID,0,VALID,94.6988,VALID,0,VALID,24.1305,VALID,66,VALID,0,
2012-01-06, 00:17:04,VALID,1000.58,VALID,0,VALID,94.6836,VALID,0,VALID,24.15,VALID,66,VALID,0,
2012-01-06, 00:18:04,VALID,1000.56,VALID,0,VALID,94.676,VALID,0,VALID,24.15,VALID,66,VALID,0,
2012-01-06, 00:19:04,VALID,1000.57,VALID,0,VALID,94.6912,VALID,0,VALID,24.15,VALID,66,VALID,0,
2012-01-06, 00:20:04,VALID,1000.58,VALID,0,VALID,94.6912,VALID,0,VALID,24.15,VALID,66,VALID,0,
2012-01-06, 00:21:04,VALID,1000.57,VALID,0,VALID,94.6836,VALID,0,VALID,24.15,VALID,66,VALID,0,
2012-01-06, 00:22:04,VALID,1000.57,VALID,0,VALID,94.6683,VALID,0,VALID,24.15,VALID,66,VALID,0.483203,
2012-01-06, 00:23:04,VALID,1000.57,VALID,0,VALID,94.676,VALID,0,VALID,24.1305,VALID,301,VALID,0,
2012-01-06, 00:24:04,VALID,1000.53,VALID,0,VALID,94.6912,VALID,0,VALID,24.15,VALID,275,VALID,0.420312,
2012-01-06, 00:25:04,VALID,1000.54,VALID,0,VALID,94.6912,VALID,0,VALID,24.15,VALID,277,VALID,0.00234375,
2012-01-06, 00:26:04,VALID,1000.54,VALID,0,VALID,94.6836,VALID,0,VALID,24.1696,VALID,307,VALID,0.495703,
2012-01-06, 00:27:04,VALID,1000.54,VALID,0,VALID,94.6607,VALID,0,VALID,24.15,VALID,307,VALID,0.5,
2012-01-06, 00:28:04,VALID,1000.52,VALID,0,VALID,94.676,VALID,0,VALID,24.15,VALID,307,VALID,0.298047,
2012-01-06, 00:29:04,VALID,1000.54,VALID,0,VALID,94.6912,VALID,0,VALID,24.1696,VALID,307,VALID,0.579687,
2012-01-06, 00:30:04,VALID,1000.52,VALID,0,VALID,94.676,VALID,0,VALID,24.1696,VALID,307,VALID,0.633594,
2012-01-06, 00:31:04,VALID,1000.54,VALID,0,VALID,94.6836,VALID,0,VALID,24.1482,VALID,307,VALID,0.561328,
2012-01-06, 00:32:04,VALID,1000.52,VALID,0,VALID,94.6607,VALID,0,VALID,24.1891,VALID,307,VALID,0.524219,
2012-01-06, 00:33:04,VALID,1000.5,VALID,0,VALID,94.6531,VALID,0,VALID,24.1872,VALID,307,VALID,0.637109,
2012-01-06, 00:34:04,VALID,1000.52,VALID,0,VALID,94.6607,VALID,0,VALID,24.2086,VALID,307,VALID,0.442578,
2012-01-06, 00:35:04,VALID,1000.51,VALID,0,VALID,94.6683,VALID,0,VALID,24.2086,VALID,307,VALID,0.537109,
2012-01-06, 00:36:04,VALID,1000.51,VALID,0,VALID,94.6607,VALID,0,VALID,24.1872,VALID,307,VALID,0.380469,
2012-01-06, 00:37:04,VALID,1000.49,VALID,0,VALID,94.676,VALID,0,VALID,24.2281,VALID,307,VALID,0.338672,
2012-01-06, 00:38:04,VALID,1000.49,VALID,0,VALID,94.676,VALID,0,VALID,24.2067,VALID,307,VALID,0.300781,
2012-01-06, 00:39:04,VALID,1000.44,VALID,0,VALID,94.676,VALID,0,VALID,24.2281,VALID,307,VALID,0.112891,
2012-01-06, 00:40:04,VALID,1000.44,VALID,0,VALID,94.676,VALID,0,VALID,24.2263,VALID,307,VALID,0.0167969,
2012-01-06, 00:41:04,VALID,1000.41,VALID,0,VALID,94.6607,VALID,0,VALID,24.2263,VALID,307,VALID,0.393359,
2012-01-06, 00:42:04,VALID,1000.4,VALID,0,VALID,94.6836,VALID,0,VALID,24.2263,VALID,307,VALID,0.346094,
2012-01-06, 00:43:04,VALID,1000.35,VALID,0,VALID,94.6683,VALID,0,VALID,24.2476,VALID,307,VALID,0.131641,
2012-01-06, 00:44:04,VALID,1000.35,VALID,0,VALID,94.6683,VALID,0,VALID,24.2067,VALID,307,VALID,0,
2012-01-06, 00:45:04,VALID,1000.35,VALID,0,VALID,94.6836,VALID,0,VALID,24.2067,VALID,307,VALID,0,
2012-01-06, 00:46:04,VALID,1000.32,VALID,0,VALID,94.6683,VALID,0,VALID,24.2067,VALID,307,VALID,0.119531,
2012-01-06, 00:47:04,VALID,1000.3,VALID,0,VALID,94.6607,VALID,0,VALID,24.2263,VALID,307,VALID,0.439453,
2012-01-06, 00:48:04,VALID,1000.31,VALID,0,VALID,94.6683,VALID,0,VALID,24.2263,VALID,307,VALID,0.235938,
2012-01-06, 00:49:04,VALID,1000.31,VALID,0,VALID,94.676,VALID,0,VALID,24.2263,VALID,307,VALID,0.205859,
2012-01-06, 00:50:04,VALID,1000.32,VALID,0,VALID,94.6836,VALID,0,VALID,24.2263,VALID,307,VALID,0.228516,
2012-01-06, 00:51:04,VALID,1000.29,VALID,0,VALID,94.6912,VALID,0,VALID,24.2476,VALID,307,VALID,0.295703,
2012-01-06, 00:52:04,VALID,1000.26,VALID,0,VALID,94.6683,VALID,0,VALID,24.2263,VALID,287,VALID,0.296484,
2012-01-06, 00:53:04,VALID,1000.25,VALID,0,VALID,94.676,VALID,0,VALID,24.2476,VALID,287,VALID,0.326172,
2012-01-06, 00:54:04,VALID,1000.22,VALID,0,VALID,94.676,VALID,0,VALID,24.2263,VALID,287,VALID,0.300391,
2012-01-06, 00:55:04,VALID,1000.2,VALID,0,VALID,94.676,VALID,0,VALID,24.2476,VALID,287,VALID,0.412891,
2012-01-06, 00:56:04,VALID,1000.16,VALID,0,VALID,94.6683,VALID,0,VALID,24.2263,VALID,287,VALID,0.496484,
2012-01-06, 00:57:04,VALID,1000.14,VALID,0,VALID,94.6836,VALID,0,VALID,24.2281,VALID,287,VALID,0.389453,
2012-01-06, 00:58:04,VALID,1000.12,VALID,0,VALID,94.676,VALID,0,VALID,24.2067,VALID,287,VALID,0.305078,
2012-01-06, 00:59:04,VALID,1000.11,VALID,0,VALID,94.6836,VALID,0,VALID,24.2281,VALID,287,VALID,0.163672,
2012-01-06, 01:00:04,VALID,1000.13,VALID,0,VALID,94.6683,VALID,0,VALID,24.2086,VALID,287,VALID,0,
2012-01-06, 01:01:04,VALID,1000.11,VALID,0,VALID,94.6988,VALID,0,VALID,24.1677,VALID,287,VALID,0,
2012-01-06, 01:02:04,VALID,1000.14,VALID,0,VALID,94.6836,VALID,0,VALID,24.2086,VALID,287,VALID,0,
2012-01-06, 01:03:04,VALID,1000.13,VALID,0,VALID,94.6988,VALID,0,VALID,24.1696,VALID,287,VALID,0,
2012-01-06, 01:04:04,VALID,1000.14,VALID,0,VALID,94.6912,VALID,0,VALID,24.1677,VALID,287,VALID,0.250391,
2012-01-06, 01:05:04,VALID,1000.15,VALID,0,VALID,94.6912,VALID,0,VALID,24.1696,VALID,287,VALID,0.247266,
2012-01-06, 01:06:04,VALID,1000.13,VALID,0,VALID,94.7065,VALID,0,VALID,24.1891,VALID,287,VALID,0.130859,
2012-01-06, 01:07:04,VALID,1000.14,VALID,0,VALID,94.6683,VALID,0,VALID,24.1891,VALID,275,VALID,0.398438,
2012-01-06, 01:08:04,VALID,1000.12,VALID,0,VALID,94.7065,VALID,0,VALID,24.1891,VALID,247,VALID,0.687891,
2012-01-06, 01:09:04,VALID,1000.11,VALID,0,VALID,94.6988,VALID,0,VALID,24.1677,VALID,241,VALID,0.506641,
2012-01-06, 01:10:04,VALID,1000.08,VALID,0,VALID,94.6912,VALID,0,VALID,24.1891,VALID,241,VALID,0.613672,
2012-01-06, 01:11:04,VALID,1000.07,VALID,0,VALID,94.6988,VALID,0,VALID,24.2086,VALID,221,VALID,0.7,
2012-01-06, 01:12:04,VALID,1000.08,VALID,0,VALID,94.7065,VALID,0,VALID,24.2086,VALID,200,VALID,0.912891,
2012-01-06, 01:13:04,VALID,1000.08,VALID,0,VALID,94.6912,VALID,0,VALID,24.1872,VALID,206,VALID,1.01328,
2012-01-06, 01:14:04,VALID,1000.07,VALID,0,VALID,94.7065,VALID,0,VALID,24.1677,VALID,210,VALID,1.06289,
2012-01-06, 01:15:04,VALID,1000.07,VALID,0,VALID,94.6836,VALID,0,VALID,24.1891,VALID,213,VALID,0.953516,
2012-01-06, 01:16:04,VALID,1000.07,VALID,0,VALID,94.7065,VALID,0,VALID,24.1891,VALID,217,VALID,0.905859,
2012-01-06, 01:17:04,VALID,1000.07,VALID,0,VALID,94.6912,VALID,0,VALID,24.1677,VALID,225,VALID,0.958984,
2012-01-06, 01:18:04,VALID,1000.04,VALID,0,VALID,94.7065,VALID,0,VALID,24.1891,VALID,223,VALID,1.0957,
2012-01-06, 01:19:04,VALID,1000.04,VALID,0,VALID,94.6836,VALID,0,VALID,24.1482,VALID,241,VALID,0.515234,
2012-01-06, 01:20:04,VALID,1000.03,VALID,0,VALID,94.7065,VALID,0,VALID,24.1696,VALID,203,VALID,0.345703,
2012-01-06, 01:21:04,VALID,1000.03,VALID,0,VALID,94.6912,VALID,0,VALID,24.1482,VALID,203,VALID,0.358984,
2012-01-06, 01:22:04,VALID,1000.03,VALID,0,VALID,94.6912,VALID,0,VALID,24.15,VALID,203,VALID,0.413672,
2012-01-06, 01:23:04,VALID,1000.04,VALID,0,VALID,94.6988,VALID,0,VALID,24.1287,VALID,203,VALID,0.407422,
2012-01-06, 01:24:04,VALID,1000.05,VALID,0,VALID,94.7141,VALID,0,VALID,24.1305,VALID,189,VALID,0.689844,
2012-01-06, 01:25:04,VALID,1000.04,VALID,0,VALID,94.7141,VALID,0,VALID,24.1305,VALID,186,VALID,0.425,
2012-01-06, 01:26:04,VALID,1000.06,VALID,0,VALID,94.6988,VALID,0,VALID,24.111,VALID,154,VALID,0.689453,
2012-01-06, 01:27:04,VALID,1000.06,VALID,0,VALID,94.7141,VALID,0,VALID,24.111,VALID,154,VALID,0.752344,
2012-01-06, 01:28:04,VALID,1000.07,VALID,0,VALID,94.7141,VALID,0,VALID,24.0915,VALID,142,VALID,0.960938,
2012-01-06, 01:29:04,VALID,1000.05,VALID,0,VALID,94.7217,VALID,0,VALID,24.0915,VALID,142,VALID,0.866797,
2012-01-06, 01:30:04,VALID,1000.06,VALID,0,VALID,94.7294,VALID,0,VALID,24.0701,VALID,143,VALID,1.0168,
2012-01-06, 01:31:04,VALID,1000.05,VALID,0,VALID,94.7217,VALID,0,VALID,24.0915,VALID,143,VALID,0.792188,
2012-01-06, 01:32:04,VALID,1000.02,VALID,0,VALID,94.7065,VALID,0,VALID,24.0701,VALID,151,VALID,1.12578,
2012-01-06, 01:33:04,VALID,1000.03,VALID,0,VALID,94.7294,VALID,0,VALID,24.0701,VALID,152,VALID,1.27031,
2012-01-06, 01:34:04,VALID,1000.07,VALID,0,VALID,94.7217,VALID,0,VALID,24.0506,VALID,152,VALID,0.789063,
2012-01-06, 01:35:04,VALID,1000.07,VALID,0,VALID,94.7217,VALID,0,VALID,24.0915,VALID,152,VALID,0.859766,
2012-01-06, 01:36:04,VALID,1000.08,VALID,0,VALID,94.7217,VALID,0,VALID,24.0915,VALID,152,VALID,0.761719,
2012-01-06, 01:37:04,VALID,1000.09,VALID,0,VALID,94.7294,VALID,0,VALID,24.0701,VALID,151,VALID,0.714063,
2012-01-06, 01:38:04,VALID,1000.06,VALID,0,VALID,94.737,VALID,0,VALID,24.0506,VALID,136,VALID,0.845703,
2012-01-06, 01:39:04,VALID,1000.04,VALID,0,VALID,94.7446,VALID,0,VALID,24.0506,VALID,136,VALID,0.788672,
2012-01-06, 01:40:04,VALID,1000.05,VALID,0,VALID,94.7294,VALID,0,VALID,24.0506,VALID,136,VALID,0.733203,
2012-01-06, 01:41:04,VALID,1000.01,VALID,0,VALID,94.7294,VALID,0,VALID,24.0525,VALID,136,VALID,0.842188,
2012-01-06, 01:42:04,VALID,1000.02,VALID,0,VALID,94.7446,VALID,0,VALID,24.0116,VALID,136,VALID,0.875,
2012-01-06, 01:43:04,VALID,1000.02,VALID,0,VALID,94.7294,VALID,0,VALID,24.0525,VALID,136,VALID,0.877734,
2012-01-06, 01:44:04,VALID,1000.05,VALID,0,VALID,94.737,VALID,0,VALID,24.0525,VALID,150,VALID,0.871484,
2012-01-06, 01:45:04,VALID,1000.02,VALID,0,VALID,94.7141,VALID,0,VALID,24.0525,VALID,150,VALID,0.908594,
2012-01-06, 01:46:04,VALID,1000.03,VALID,0,VALID,94.737,VALID,0,VALID,24.0311,VALID,150,VALID,0.844922,
2012-01-06, 01:47:04,VALID,1000.02,VALID,0,VALID,94.7294,VALID,0,VALID,24.0525,VALID,152,VALID,1.04805,
2012-01-06, 01:48:04,VALID,1000.03,VALID,0,VALID,94.737,VALID,0,VALID,24.0525,VALID,152,VALID,0.83125,
2012-01-06, 01:49:04,VALID,1000.02,VALID,0,VALID,94.7141,VALID,0,VALID,24.072,VALID,152,VALID,0.841016,
2012-01-06, 01:50:04,VALID,1000.03,VALID,0,VALID,94.7217,VALID,0,VALID,24.0506,VALID,152,VALID,0.916406,
2012-01-06, 01:51:04,VALID,1000.02,VALID,0,VALID,94.7294,VALID,0,VALID,24.072,VALID,168,VALID,1.07461,
2012-01-06, 01:52:04,VALID,1000.03,VALID,0,VALID,94.737,VALID,0,VALID,24.0506,VALID,172,VALID,1.00625,
2012-01-06, 01:53:04,VALID,999.997,VALID,0,VALID,94.7065,VALID,0,VALID,24.072,VALID,181,VALID,0.883594,
2012-01-06, 01:54:04,VALID,999.981,VALID,0,VALID,94.7294,VALID,0,VALID,24.072,VALID,181,VALID,0.534766,
2012-01-06, 01:55:04,VALID,999.953,VALID,0,VALID,94.7446,VALID,0,VALID,24.0311,VALID,181,VALID,0.466406,
2012-01-06, 01:56:04,VALID,999.935,VALID,0,VALID,94.7294,VALID,0,VALID,24.0311,VALID,161,VALID,0.848437,
2012-01-06, 01:57:04,VALID,999.936,VALID,0,VALID,94.7217,VALID,0,VALID,24.0525,VALID,155,VALID,0.936719,
2012-01-06, 01:58:04,VALID,999.911,VALID,0,VALID,94.737,VALID,0,VALID,24.0329,VALID,155,VALID,0.696484,
2012-01-06, 01:59:04,VALID,999.919,VALID,0,VALID,94.737,VALID,0,VALID,24.0525,VALID,155,VALID,0.762109,
2012-01-06, 02:00:04,VALID,999.948,VALID,0,VALID,94.737,VALID,0,VALID,24.0311,VALID,155,VALID,0.589063,
2012-01-06, 02:01:04,VALID,999.923,VALID,0,VALID,94.7294,VALID,0,VALID,24.0329,VALID,155,VALID,0.492188,
2012-01-06, 02:02:04,VALID,999.926,VALID,0,VALID,94.7599,VALID,0,VALID,24.0116,VALID,155,VALID,0.672656,
2012-01-06, 02:03:04,VALID,999.891,VALID,0,VALID,94.7599,VALID,0,VALID,24.0329,VALID,155,VALID,0.726172,
2012-01-06, 02:04:04,VALID,999.913,VALID,0,VALID,94.737,VALID,0,VALID,24.0329,VALID,155,VALID,0.627344,
2012-01-06, 02:05:04,VALID,999.889,VALID,0,VALID,94.737,VALID,0,VALID,24.0329,VALID,167,VALID,0.700781,
2012-01-06, 02:06:04,VALID,999.921,VALID,0,VALID,94.7294,VALID,0,VALID,24.0116,VALID,174,VALID,1.09687,
2012-01-06, 02:07:04,VALID,999.935,VALID,0,VALID,94.737,VALID,0,VALID,24.0134,VALID,181,VALID,0.983594,
2012-01-06, 02:08:04,VALID,999.914,VALID,0,VALID,94.7523,VALID,0,VALID,23.9921,VALID,179,VALID,1.06016,
2012-01-06, 02:09:04,VALID,999.942,VALID,0,VALID,94.7523,VALID,0,VALID,23.9921,VALID,179,VALID,1.04141,
2012-01-06, 02:10:04,VALID,999.919,VALID,0,VALID,94.7446,VALID,0,VALID,24.0134,VALID,179,VALID,1.13359,
2012-01-06, 02:11:04,VALID,999.87,VALID,0,VALID,94.7523,VALID,0,VALID,23.9921,VALID,179,VALID,1.19375,
2012-01-06, 02:12:04,VALID,999.908,VALID,0,VALID,94.7446,VALID,0,VALID,23.9939,VALID,181,VALID,1.21055,
2012-01-06, 02:13:04,VALID,999.842,VALID,0,VALID,94.7523,VALID,0,VALID,23.9921,VALID,182,VALID,1.37031,
2012-01-06, 02:14:04,VALID,999.867,VALID,0,VALID,94.7446,VALID,0,VALID,23.9939,VALID,182,VALID,1.31055,
2012-01-06, 02:15:04,VALID,999.803,VALID,0,VALID,94.7446,VALID,0,VALID,23.9726,VALID,184,VALID,1.54297,
2012-01-06, 02:16:04,VALID,999.795,VALID,0,VALID,94.7446,VALID,0,VALID,24.0116,VALID,185,VALID,1.39297,
2012-01-06, 02:17:04,VALID,999.788,VALID,0,VALID,94.7446,VALID,0,VALID,24.0311,VALID,178,VALID,1.3418,
2012-01-06, 02:18:04,VALID,999.742,VALID,0,VALID,94.7523,VALID,0,VALID,24.0525,VALID,178,VALID,1.16719,
2012-01-06, 02:19:04,VALID,999.744,VALID,0,VALID,94.737,VALID,0,VALID,24.0525,VALID,171,VALID,1.4625,
2012-01-06, 02:20:04,VALID,999.74,VALID,0,VALID,94.7523,VALID,0,VALID,24.0525,VALID,171,VALID,1.18125,
2012-01-06, 02:21:04,VALID,999.733,VALID,0,VALID,94.7523,VALID,0,VALID,24.0525,VALID,174,VALID,0.799609,
2012-01-06, 02:22:04,VALID,999.712,VALID,0,VALID,94.7446,VALID,0,VALID,24.0311,VALID,171,VALID,0.859375,
2012-01-06, 02:23:04,VALID,999.692,VALID,0,VALID,94.7523,VALID,0,VALID,24.0329,VALID,172,VALID,0.733594,
2012-01-06, 02:24:04,VALID,999.673,VALID,0,VALID,94.7599,VALID,0,VALID,24.0116,VALID,172,VALID,0.678125,
2012-01-06, 02:25:04,VALID,999.695,VALID,0,VALID,94.7751,VALID,0,VALID,24.0116,VALID,161,VALID,0.889063,
2012-01-06, 02:26:04,VALID,999.683,VALID,0,VALID,94.7675,VALID,0,VALID,23.9939,VALID,155,VALID,0.53125,
2012-01-06, 02:27:04,VALID,999.649,VALID,0,VALID,94.7599,VALID,0,VALID,23.9939,VALID,160,VALID,0.796094,
2012-01-06, 02:28:04,VALID,999.637,VALID,0,VALID,94.7751,VALID,0,VALID,23.9921,VALID,197,VALID,0.751172,
2012-01-06, 02:29:04,VALID,999.621,VALID,0,VALID,94.7523,VALID,0,VALID,23.9726,VALID,197,VALID,0.579687,
2012-01-06, 02:30:04,VALID,999.616,VALID,0,VALID,94.7675,VALID,0,VALID,23.9939,VALID,197,VALID,1.00742,
2012-01-06, 02:31:04,VALID,999.615,VALID,0,VALID,94.7446,VALID,0,VALID,23.9726,VALID,197,VALID,0.978125,
2012-01-06, 02:32:04,VALID,999.632,VALID,0,VALID,94.7675,VALID,0,VALID,23.9939,VALID,198,VALID,0.633594,
2012-01-06, 02:33:04,VALID,999.633,VALID,0,VALID,94.7599,VALID,0,VALID,23.9921,VALID,226,VALID,0.958203,
2012-01-06, 02:34:04,VALID,999.612,VALID,0,VALID,94.7675,VALID,0,VALID,23.9921,VALID,226,VALID,0.767969,
2012-01-06, 02:35:04,VALID,999.599,VALID,0,VALID,94.7675,VALID,0,VALID,23.9921,VALID,226,VALID,0.803125,
2012-01-06, 02:36:04,VALID,999.6,VALID,0,VALID,94.737,VALID,0,VALID,23.9921,VALID,217,VALID,0.801562,
2012-01-06, 02:37:04,VALID,999.606,VALID,0,VALID,94.7675,VALID,0,VALID,23.9726,VALID,218,VALID,0.533203,
2012-01-06, 02:38:04,VALID,999.616,VALID,0,VALID,94.7751,VALID,0,VALID,23.9939,VALID,218,VALID,0.171875,
2012-01-06, 02:39:04,VALID,999.625,VALID,0,VALID,94.7523,VALID,0,VALID,23.9939,VALID,220,VALID,0.829687,
2012-01-06, 02:40:04,VALID,999.62,VALID,0,VALID,94.7446,VALID,0,VALID,23.9939,VALID,216,VALID,0.250781,
2012-01-06, 02:41:04,VALID,999.628,VALID,0,VALID,94.7599,VALID,0,VALID,23.9744,VALID,200,VALID,0.780859,
2012-01-06, 02:42:04,VALID,999.619,VALID,0,VALID,94.7675,VALID,0,VALID,23.9744,VALID,199,VALID,0.658203,
2012-01-06, 02:43:04,VALID,999.643,VALID,0,VALID,94.7523,VALID,0,VALID,23.9531,VALID,199,VALID,0.714063,
2012-01-06, 02:44:04,VALID,999.667,VALID,0,VALID,94.7523,VALID,0,VALID,23.9744,VALID,207,VALID,0.653125,
2012-01-06, 02:45:04,VALID,999.7,VALID,0,VALID,94.7599,VALID,0,VALID,23.9336,VALID,200,VALID,1.10469,
2012-01-06, 02:46:04,VALID,999.711,VALID,0,VALID,94.7523,VALID,0,VALID,23.9549,VALID,204,VALID,1.1207,
2012-01-06, 02:47:04,VALID,999.736,VALID,0,VALID,94.7675,VALID,0,VALID,23.9531,VALID,212,VALID,0.627344,
2012-01-06, 02:48:04,VALID,999.754,VALID,0,VALID,94.7446,VALID,0,VALID,23.9531,VALID,212,VALID,0.399609,
2012-01-06, 02:49:04,VALID,999.742,VALID,0,VALID,94.7599,VALID,0,VALID,23.9726,VALID,204,VALID,0.48125,
2012-01-06, 02:50:04,VALID,999.775,VALID,0,VALID,94.7675,VALID,0,VALID,23.9744,VALID,171,VALID,0.557813,
2012-01-06, 02:51:04,VALID,999.76,VALID,0,VALID,94.7675,VALID,0,VALID,23.9336,VALID,129,VALID,0.817578,
2012-01-06, 02:52:04,VALID,999.77,VALID,0,VALID,94.7751,VALID,0,VALID,23.914,VALID,125,VALID,1.01992,
2012-01-06, 02:53:04,VALID,999.805,VALID,0,VALID,94.798,VALID,0,VALID,23.875,VALID,116,VALID,1.03477,
2012-01-06, 02:54:04,VALID,999.814,VALID,0,VALID,94.7904,VALID,0,VALID,23.8768,VALID,116,VALID,1.00937,
2012-01-06, 02:55:04,VALID,999.768,VALID,0,VALID,94.7904,VALID,0,VALID,23.836,VALID,114,VALID,0.738281,
2012-01-06, 02:56:04,VALID,999.766,VALID,0,VALID,94.7904,VALID,0,VALID,23.8768,VALID,103,VALID,0.900391,
2012-01-06, 02:57:04,VALID,999.768,VALID,0,VALID,94.7675,VALID,0,VALID,23.8555,VALID,86,VALID,0.929297,
2012-01-06, 02:58:04,VALID,999.761,VALID,0,VALID,94.7751,VALID,0,VALID,23.8555,VALID,55,VALID,1.16133,
2012-01-06, 02:59:04,VALID,999.751,VALID,0,VALID,94.7675,VALID,0,VALID,23.836,VALID,57,VALID,0.992578,
2012-01-06, 03:00:04,VALID,999.743,VALID,0,VALID,94.7904,VALID,0,VALID,23.836,VALID,57,VALID,0.926172,
2012-01-06, 03:01:04,VALID,999.723,VALID,0,VALID,94.7599,VALID,0,VALID,23.8555,VALID,57,VALID,0.607031,
2012-01-06, 03:02:04,VALID,999.719,VALID,0,VALID,94.7751,VALID,0,VALID,23.8573,VALID,57,VALID,0.742578,
2012-01-06, 03:03:04,VALID,999.719,VALID,0,VALID,94.7599,VALID,0,VALID,23.8573,VALID,57,VALID,0.483203,
2012-01-06, 03:04:04,VALID,999.734,VALID,0,VALID,94.7675,VALID,0,VALID,23.836,VALID,68,VALID,0.702734,
2012-01-06, 03:05:04,VALID,999.709,VALID,0,VALID,94.7599,VALID,0,VALID,23.8165,VALID,101,VALID,0.689844,
2012-01-06, 03:06:04,VALID,999.734,VALID,0,VALID,94.7904,VALID,0,VALID,23.8378,VALID,101,VALID,0.614844,
2012-01-06, 03:07:04,VALID,999.713,VALID,0,VALID,94.7675,VALID,0,VALID,23.8165,VALID,101,VALID,0.676172,
2012-01-06, 03:08:04,VALID,999.705,VALID,0,VALID,94.7675,VALID,0,VALID,23.797,VALID,90,VALID,0.757422,
2012-01-06, 03:09:04,VALID,999.704,VALID,0,VALID,94.7828,VALID,0,VALID,23.8183,VALID,86,VALID,0.800391,
2012-01-06, 03:10:04,VALID,999.699,VALID,0,VALID,94.798,VALID,0,VALID,23.7988,VALID,86,VALID,0.771094,
2012-01-06, 03:11:04,VALID,999.685,VALID,0,VALID,94.7751,VALID,0,VALID,23.7775,VALID,73,VALID,0.677344,
2012-01-06, 03:12:04,VALID,999.689,VALID,0,VALID,94.7904,VALID,0,VALID,23.7384,VALID,73,VALID,0.615625,
2012-01-06, 03:13:04,VALID,999.681,VALID,0,VALID,94.7828,VALID,0,VALID,23.7402,VALID,67,VALID,0.721875,
2012-01-06, 03:14:04,VALID,999.706,VALID,0,VALID,94.7828,VALID,0,VALID,23.7189,VALID,67,VALID,0.473047,
2012-01-06, 03:15:04,VALID,999.709,VALID,0,VALID,94.8057,VALID,0,VALID,23.7207,VALID,67,VALID,0.533594,
2012-01-06, 03:16:04,VALID,999.74,VALID,0,VALID,94.8057,VALID,0,VALID,23.7012,VALID,67,VALID,0,
2012-01-06, 03:17:04,VALID,999.714,VALID,0,VALID,94.7904,VALID,0,VALID,23.6799,VALID,67,VALID,0,
2012-01-06, 03:18:04,VALID,999.711,VALID,0,VALID,94.8057,VALID,0,VALID,23.6799,VALID,67,VALID,0,
2012-01-06, 03:19:04,VALID,999.74,VALID,0,VALID,94.7751,VALID,0,VALID,23.6799,VALID,67,VALID,0,
2012-01-06, 03:20:04,VALID,999.709,VALID,0,VALID,94.7828,VALID,0,VALID,23.7012,VALID,67,VALID,0,
2012-01-06, 03:21:04,VALID,999.742,VALID,0,VALID,94.8057,VALID,0,VALID,23.6604,VALID,67,VALID,0,
2012-01-06, 03:22:04,VALID,999.734,VALID,0,VALID,94.7904,VALID,0,VALID,23.6799,VALID,67,VALID,0,
2012-01-06, 03:23:04,VALID,999.752,VALID,0,VALID,94.798,VALID,0,VALID,23.6817,VALID,66,VALID,0,
2012-01-06, 03:24:04,VALID,999.755,VALID,0,VALID,94.7828,VALID,0,VALID,23.6409,VALID,56,VALID,0.03125,
2012-01-06, 03:25:04,VALID,999.774,VALID,0,VALID,94.8057,VALID,0,VALID,23.6232,VALID,52,VALID,1.09023,
2012-01-06, 03:26:04,VALID,999.772,VALID,0,VALID,94.7904,VALID,0,VALID,23.6232,VALID,52,VALID,1.00352,
2012-01-06, 03:27:04,VALID,999.736,VALID,0,VALID,94.7828,VALID,0,VALID,23.6232,VALID,52,VALID,0.871484,
2012-01-06, 03:28:04,VALID,999.774,VALID,0,VALID,94.7904,VALID,0,VALID,23.6019,VALID,52,VALID,0.65,
2012-01-06, 03:29:04,VALID,999.759,VALID,0,VALID,94.798,VALID,0,VALID,23.6232,VALID,52,VALID,0,
2012-01-06, 03:30:04,VALID,999.775,VALID,0,VALID,94.7828,VALID,0,VALID,23.6232,VALID,52,VALID,0,
2012-01-06, 03:31:04,VALID,999.761,VALID,0,VALID,94.798,VALID,0,VALID,23.6214,VALID,52,VALID,0,
2012-01-06, 03:32:04,VALID,999.755,VALID,0,VALID,94.7828,VALID,0,VALID,23.6019,VALID,52,VALID,0,
2012-01-06, 03:33:04,VALID,999.761,VALID,0,VALID,94.8133,VALID,0,VALID,23.6019,VALID,52,VALID,0,
2012-01-06, 03:34:04,VALID,999.737,VALID,0,VALID,94.798,VALID,0,VALID,23.5823,VALID,52,VALID,0,
2012-01-06, 03:35:04,VALID,999.747,VALID,0,VALID,94.7904,VALID,0,VALID,23.5823,VALID,52,VALID,0,
2012-01-06, 03:36:04,VALID,999.784,VALID,0,VALID,94.7904,VALID,0,VALID,23.5823,VALID,52,VALID,0,
2012-01-06, 03:37:04,VALID,999.783,VALID,0,VALID,94.7675,VALID,0,VALID,23.6019,VALID,52,VALID,0,
2012-01-06, 03:38:04,VALID,999.807,VALID,0,VALID,94.7751,VALID,0,VALID,23.6427,VALID,52,VALID,0,
2012-01-06, 03:39:04,VALID,999.836,VALID,0,VALID,94.798,VALID,0,VALID,23.6214,VALID,52,VALID,0,
2012-01-06, 03:40:04,VALID,999.838,VALID,0,VALID,94.7828,VALID,0,VALID,23.6019,VALID,52,VALID,0,
2012-01-06, 03:41:04,VALID,999.868,VALID,0,VALID,94.7675,VALID,0.104696,VALID,23.6019,VALID,52,VALID,0,
2012-01-06, 03:42:04,VALID,999.847,VALID,0,VALID,94.7828,VALID,0,VALID,23.6019,VALID,52,VALID,0,
2012-01-06, 03:43:04,VALID,999.867,VALID,0,VALID,94.7828,VALID,0,VALID,23.6214,VALID,52,VALID,0,
2012-01-06, 03:44:04,VALID,999.878,VALID,0,VALID,94.798,VALID,0,VALID,23.6214,VALID,52,VALID,0,
2012-01-06, 03:45:04,VALID,999.882,VALID,0,VALID,94.798,VALID,0,VALID,23.6409,VALID,52,VALID,0,
2012-01-06, 03:46:04,VALID,999.855,VALID,0,VALID,94.7904,VALID,0,VALID,23.6604,VALID,52,VALID,0,
2012-01-06, 03:47:04,VALID,999.909,VALID,0,VALID,94.7675,VALID,0,VALID,23.6799,VALID,52,VALID,0,
2012-01-06, 03:48:04,VALID,999.918,VALID,0,VALID,94.7675,VALID,0,VALID,23.7012,VALID,52,VALID,0,
2012-01-06, 03:49:04,VALID,999.961,VALID,0,VALID,94.7751,VALID,0,VALID,23.6799,VALID,52,VALID,0,